Showing default

CXO, 25867

Orbit data source: Space-Track

CXO, 25867 is a payload satellite owned by NASA MSFC (US) in HEO that was launched on Fri, 23 Jul 1999 UTC via an SPACE SHUTTLE launch vehicle from the Air Force Eastern Test Range (AFETR). Payload-class satellites include a variety of spacecraft equipped with specific instruments for various scientific and technological missions. These include communications satellites like Starlink; space stations such as the ISS; scientific satellites like the Hubble; Earth observation satellites from companies like Planet Labs, Umbra, and HawkEye 360; GPS; miniature CubeSats for education and research; and military/defense satellites.

Loading next visibility...
Identifier
25867, 1999-040B
Orbit
HEO
Country
Flag of USUS
Related business
Manufacturer
TRW
Mission
Operational Civil Astronomy
Bus & Motor
AXAF, TR-308 X4
Mass
5,677 kg wet, 4,653 kg dry
Launch date (UTC)
1999-07-23 (27 years ago)
Launch vehicle
SPACE SHUTTLE
Launch site
Air Force Eastern Test Range (AFETR)
Object type
Payload
Rocket body
Debris
Shape & HBR
Cyl + 2 Pan, 9.8 m
Radar Cross Section
72.045 m², Large (>1 m²)

Expand to show TLE details & history
Last TLE update: 1 day ago

TLE from 1 day ago
0 CXO
1 25867U 99040B   26172.02247085  .00000453  00000-0  00000-0 0  9998
2 25867  56.2474 116.4966 7828330 310.2765   0.2930  0.37807394 17335
Epoch: 2026-06-21T00:32Z
TLE epoch observation values (Epoch: 2026-06-21T00:32:21.481Z)
Latitude
-36.32582°
Longitude
169.80726°
Altitude
11,092.136 km
Speed
6.381 km/s
True Right ascension
05h 48m 30s
True Declination
-36° 15' 32"
Sunlit
Object was in daylight at epoch
Visualization orbit readout
Latitude
Unknown
Longitude
Unknown
Altitude
Unknown
Speed
Unknown
Apparent Right ascension
Unknown
Apparent Declination
Unknown
Sunlit
N/A
Visualization observer readout
Local Sidereal Time
23:20:02
Azimuth
Unknown
Elevation
Unknown
Doppler factor
Unknown
Orbital elements
Apogee altitude
137,654.582 km
Perigee altitude
11,166.498 km
Semi-major axis
80,788.677 km
Eccentricity
0.78283
Inclination
56.2474°
RAAN
116.4966°
Arg. of periapsis
310.2765°
True anomaly
3.86316°
Mean anomaly
0.293°
Eccentric anomaly
1.34874°
Mean motion
0.09452 °/min
Orbital period
3,808.77 mins
BSTAR
0
Loading maneuver chart data...
Computing Atmospheric mass density...
Loading historical data...
Loading historical data...
Loading historical data...
Loading historical data...
Loading historical data...
Loading historical data...
Loading historical data...

Documentation

Showing up to 5 results
|